{"data":{"norad_id":57121,"intl_designator":"2023-090W","name":"STARLINK-6152","alt_names":[],"object_type":"PAYLOAD","status":"ACTIVE","operator":null,"country":"US","launch_date":"2023-06-23","launch_site_code":"AFETR","launch_vehicle":null,"mission":null,"orbit_class":"UNKNOWN","rcs_meters":null,"size_class":null,"mass_kg":null,"dimensions":null,"purposes":["comms"],"wikipedia_slug":null,"has_3d_model":false,"image_url":null,"decayed_at":null,"tle_current":{"epoch":"2026-05-24T21:44:44.083392Z","epoch_age_seconds":80483,"freshness":"FRESH","line1":"1 57121U 23090W   26144.90606578 -.00002344  00000+0 -77758-4 0  9990","line2":"2 57121  43.0043 210.7040 0001584 293.9872  66.0814 15.26727885161806","mean_motion":15.26727885,"eccentricity":0.0001584,"inclination_deg":43.0043,"raan_deg":210.704,"arg_perigee_deg":293.9872,"mean_anomaly_deg":66.0814,"bstar":-7.7758e-5,"rev_number":16180,"period_min":94.31936196017,"perigee_km":484.51460533878,"apogee_km":486.68903779745,"semimajor_km":6863.7388215681,"source":"CELESTRAK","updated_at":"2026-05-25T13:38:18.243356Z"}}}